sat.trackr.live / text

‹ back to catalog

UNKNOWN

NORAD 81921

UNKNOWN UNKNOWN UNKNOWN

§ Identity

Operator
Country
Launch date
Launch site
Launch vehicle
Mass (kg)
RCS (m²)

External: N2YO · Heavens-Above

§ Orbital elements

Epoch: 2026-05-21T10:50:56.458176Z

Period
109.45 min
Inclination
65.7005°
Eccentricity
0.0844310
Mean motion
13.15653988 rev/d
Perigee alt
561.4 km
Apogee alt
1,841.3 km
Semi-major
7,579.5 km
B*
7.8135e-4
RAAN
50.4487°
Arg perigee
45.3539°
Mean anomaly
321.3245°
Rev number
4,679

§ Raw data

UNKNOWN1 81921U          26141.45204234  .00001883  00000+0  78135-3 0  99952 81921  65.7005  50.4487 0844310  45.3539 321.3245 13.15653988 46798

JSON: /api/v1/satellites/81921 · /tle

For live sub-satellite position, see the globe view (requires WebGL).

§ Visibility from observer

Set your observer location to see the next 7 days of passes ≥ 10°. The values pass through the URL so the page stays shareable.

No JS? Fill the form by hand. The geolocation button needs JavaScript.